Regional Weather Roundup
Issued by NWS

Home | Current Version | Previous Version | Text Only | Print | Product List | Glossary On
Versions: 1 2 3 4 5 6 7 8 9 10 11 12 13 14 15 16 17 18 19 20 21 22 23 24 25 26 27 28 29 30 31 32 33 34 35 36 37 38 39 40 41 42 43 44 45 46 47 48 49 50
000
ASUS43 KDMX 161407
RWRIA

WEATHER ROUNDUP FOR IOWA
NATIONAL WEATHER SERVICE DES MOINES IA
900 AM CDT TUE SEP 16 2014

NOTE: "FAIR" INDICATES FEW OR NO CLOUDS BELOW 12,000 FEET WITH NO
SIGNIFICANT WEATHER AND/OR OBSTRUCTIONS TO VISIBILITY.

* - THESE STATIONS ARE NOT NWS STATIONS...THUS NOT UNDER NWS
QUALITY CONTROL.  THEY ALSO DO NOT REPORT WEATHER SUCH
AS PRECIPITATION OR FOG.

IAZ001>003-012>014-020>022-031>034-043>046-161500-
   NORTHWEST IOWA

CITY           SKY/WX    TMP DP  RH WIND       PRES   REMARKS
CARROLL *      SUNNY     50  48  93 SW5       30.23F
CHEROKEE *     SUNNY     43  43 100 CALM      30.22F
DENISON *      SUNNY     46  46 100 CALM      30.21F
LE MARS *      SUNNY     45  45 100 CALM      30.21F
ORANGE CITY *  SUNNY     46  43  87 S6        30.19F
SHELDON *      SUNNY     46  45  93 S3        30.19F
SIOUX CITY     SUNNY     46  45  96 VRB3      30.22F
SPENCER        SUNNY     48  43  82 SW3       30.21F
STORM LAKE *   SUNNY     48  48 100 SW6       30.21F
$$

IAZ055>058-069>071-079>083-090>094-161500-
   SOUTHWEST IOWA

CITY           SKY/WX    TMP DP  RH WIND       PRES   REMARKS
ATLANTIC *     FOG       43  43 100 CALM      30.24S VSB 1/4
AUDUBON *      SUNNY     48  46  93 CALM      30.24F
CLARINDA *     FOG       45  45 100 CALM      30.26F VSB 0
COUNCIL BLFS * SUNNY     50  50 100 S5        30.22F
CRESTON *      SUNNY     52  48  87 CALM      30.25F
HARLAN  *      PTSUNNY   43  43 100 CALM      30.27F
LAMONI         SUNNY     53  49  86 CALM      30.25F
SHENANDOAH *   SUNNY     46  46 100 CALM      30.25F
$$

IAZ047>049-059>061-072>074-084-161500-
   CENTRAL IOWA

CITY           SKY/WX    TMP DP  RH WIND       PRES   REMARKS
AMES           SUNNY     49  47  93 CALM      30.24F
ANKENY *       SUNNY     48  48 100 CALM      30.25S
CHARITON *     SUNNY     50  48  93 CALM      30.26R
DES MOINES     SUNNY     51  47  86 CALM      30.25S
GRINNELL*      SUNNY     52  48  87 CALM      30.25S
KNOXVILLE *    SUNNY     50  48  93 CALM      30.24F
MARSHALLTOWN   SUNNY     48  46  93 CALM      30.24S
PELLA *        SUNNY     52  50  93 CALM      30.26F
PERRY *          N/A    N/A N/A N/A MISG        N/A
$$

IAZ004>006-015-016-023>025-035-036-161500-
   NORTH CENTRAL IOWA

CITY           SKY/WX    TMP DP  RH WIND       PRES   REMARKS
ALGONA *       SUNNY     50  45  81 SW7       30.22S
CLARION *        N/A     48  46  93 SW5       30.23S
ESTHERVILLE    SUNNY     49  44  83 SW5       30.20F
FORT DODGE *   SUNNY     46  45  93 CALM      30.23F
MASON CITY     SUNNY     51  44  77 SW7       30.23F
FOREST CITY *  SUNNY     46  46 100 CALM      30.21F
IOWA FALLS *     N/A     50  46  87 CALM      30.24S
$$

IAZ007>011-017>019-026>030-037>042-050>054-066-161500-
   NORTHEAST IOWA

CITY           SKY/WX    TMP DP  RH WIND       PRES   REMARKS
CEDAR RAPIDS   SUNNY     49  47  93 CALM      30.24S
CHARLES CITY * SUNNY     50  45  81 SW3       30.23F
CLINTON *      SUNNY     46  45  93 CALM      30.27S
DECORAH *      SUNNY     48  43  81 W3        30.22S
DUBUQUE        SUNNY     50  47  89 CALM      30.24S
MONTICELLO *   SUNNY     46  46 100 CALM      30.24S
OELWEIN *      SUNNY     50  45  81 CALM      30.24S
WATERLOO       SUNNY     48  45  89 CALM      30.23S
$$

IAZ064-065-067-068-078-161500-
   EAST CENTRAL IOWA

CITY           SKY/WX    TMP DP  RH WIND       PRES   REMARKS
DAVENPORT      SUNNY     51  46  83 CALM      30.25S
IOWA CITY      SUNNY     50  46  86 CALM      30.26S
MT. PLEASANT * SUNNY     52  48  87 CALM      30.25F
MUSCATINE *    SUNNY     50  46  87 CALM      30.25F
QUAD CITIES    SUNNY     52  47  83 CALM      30.25S
$$

IAZ062-063-075>077-085>089-095>099-161500-
   SOUTHEAST IOWA

CITY           SKY/WX    TMP DP  RH WIND       PRES   REMARKS
BURLINGTON     SUNNY     55  49  80 N3        30.25S
FAIRFIELD *    SUNNY     52  48  87 CALM      30.25S
FORT MADISON * SUNNY     54  52  94 CALM      30.26S
KEOKUK *       SUNNY     54  50  87 NE5       30.25S
OSKALOOSA *      N/A     48  48 100 CALM      30.26S
CENTERVILLE *  SUNNY     50  50 100 CALM      30.27S
OTTUMWA        SUNNY     48  47  96 CALM      30.24F
WASHINGTON *   SUNNY     50  50 100 CALM      30.25S
$$

ABBREVIATIONS USED IN REMARKS
   TC - TEMPERATURES IN CELSIUS
  WCI - WIND CHILL INDEX
   HX - HEAT INDEX
  VSB - VISIBILITY
$$



USA.gov is the U.S. government's official web portal to all federal, state and local government web resources and services.